Home   Weather   Rovaniemi   Past weeks

Flag for Finland Past Weather in Rovaniemi, Finland — Yesterday and Last 2 Weeks

37 °F


Feels Like: 37 °F
Forecast: 31 / 39 °F
Wind: 2 mph from Southeast

Location: Rovaniemi Airport

Current Time: Oct 21, 2016 at 2:16:36 PM

Latest Report: Oct 21, 2016 at 1:20 PM

Visibility: 2 mi

Pressure: 30.60 "Hg

Humidity: 100%

Dew Point: 37 °F

Location of RovaniemiLocation

Past Weather in Rovaniemi — Graph


Rovaniemi Temperature Yesterday

Maximum temperature yesterday: 41 °F (at 1:20 PM)
Minimum temperature yesterday: 37 °F (at 11:20 PM)
Average temperature yesterday: 39 °F

High & Low Weather Summary for the Past Weeks

High48 °F (Oct 6, 1:20 PM)100% (Oct 8, 4:20 AM)30.77 "Hg (Oct 8, 4:20 AM)
Low27 °F (Oct 12, 4:50 AM)71% (Oct 6, 1:20 PM)30.18 "Hg (Oct 18, 10:50 PM)
Average37 °F92%30.51 "Hg
* Reported Oct 6 1:20 PM — Oct 21 1:20 PM, Rovaniemi, Weather by CustomWeather, © 2016

Note: Actual official high and low records may vary slightly from our data, if they occured in-between our weather recording intervals... More about our weather records


Rovaniemi Weather History for the Previous 24 Hours

Scroll right to see more
Time TempWeatherWind HumidityBarometerVisibility
1:20 PM
Fri, Oct 21
37 °FFog.2 mph100%30.60 "Hg2 mi
12:50 PM37 °FFog.2 mph100%30.60 "Hg2 mi
12:20 PM37 °FFog.2 mph100%30.60 "Hg1 mi
11:50 AM37 °FFog.2 mph100%30.60 "Hg1 mi
11:20 AM37 °FFog.2 mph100%30.60 "Hg0 mi
10:50 AM37 °FFog.2 mph100%30.60 "Hg0 mi
10:20 AM37 °FFog.2 mph93%30.57 "Hg0 mi
9:50 AM37 °FFog.2 mph100%30.57 "Hg0 mi
9:20 AM37 °FFog.2 mph93%30.57 "Hg0 mi
8:50 AM37 °FFog.3 mph93%30.57 "Hg0 mi
8:20 AM37 °FFog.5 mph100%30.57 "Hg0 mi
7:50 AM37 °FFog.2 mph100%30.57 "Hg0 mi
7:20 AM37 °FFog.2 mph100%30.57 "Hg0 mi
6:50 AM37 °FFog.3 mph100%30.57 "Hg0 mi
6:20 AM37 °FFog.3 mph100%30.57 "Hg0 mi
5:50 AM37 °FFog.5 mph100%30.57 "Hg0 mi
5:20 AM37 °FFog.2 mph100%30.57 "Hg0 mi
4:50 AM37 °FFog.2 mph100%30.57 "Hg0 mi
4:20 AM37 °FFog.1 mph100%30.57 "Hg0 mi
3:50 AM37 °FFog.No wind100%30.57 "Hg0 mi
3:20 AM37 °FFog.2 mph100%30.57 "Hg0 mi
2:50 AM37 °FFog.2 mph100%30.57 "Hg0 mi
2:20 AM37 °FFog.5 mph100%30.57 "Hg0 mi
1:50 AM37 °FFog.3 mph100%30.57 "Hg0 mi
1:20 AM37 °FFog.1 mph100%30.57 "Hg0 mi
12:50 AM37 °FFog.2 mph100%30.57 "Hg0 mi
12:20 AM37 °FFog.1 mph100%30.57 "Hg0 mi
11:50 PM
Thu, Oct 20
37 °FFog.1 mph100%30.57 "Hg0 mi
11:20 PM37 °FFog.1 mph100%30.57 "Hg0 mi
10:50 PM39 °FFog.1 mph93%30.54 "Hg0 mi
10:20 PM39 °FFog.2 mph93%30.54 "Hg0 mi
9:50 PM39 °FFog.2 mph100%30.54 "Hg1 mi
9:20 PM39 °FFog.2 mph100%30.54 "Hg1 mi
8:50 PM39 °FFog.5 mph100%30.54 "Hg1 mi
8:20 PM39 °FFog.6 mph100%30.54 "Hg1 mi
7:50 PM39 °FFog.3 mph93%30.51 "Hg1 mi
7:20 PM39 °FFog.1 mph93%30.51 "Hg1 mi
6:50 PM39 °FFog.3 mph100%30.51 "Hg3 mi
6:20 PM39 °FOvercast.2 mph100%30.51 "Hg4 mi
5:50 PM39 °FOvercast.2 mph100%30.51 "HgN/A
5:20 PM41 °FMostly cloudy.1 mph93%30.51 "HgN/A
4:50 PM41 °FMostly cloudy.2 mph93%30.51 "HgN/A
4:20 PM41 °FMore clouds than sun.3 mph93%30.51 "HgN/A
3:50 PM41 °FCloudy.2 mph93%30.51 "HgN/A
3:20 PM41 °FCloudy.2 mph93%30.51 "HgN/A
2:50 PM41 °FPartly sunny.3 mph93%30.51 "HgN/A
2:20 PM41 °FBroken clouds.5 mph93%30.51 "HgN/A
Weather by CustomWeather, © 2016

See weather overviewHow to use our weather pages